Regional Weather Roundup
Issued by NWS

Home | Current Version | Previous Version | Text Only | Print | Product List | Glossary On
Versions: 1 2 3 4 5 6 7 8 9 10 11 12 13 14 15 16 17 18 19 20 21 22 23 24 25 26 27 28 29 30 31 32 33 34 35 36 37 38 39 40 41 42 43 44 45 46 47 48 49 50
000
ASUS44 KLIX 230113
RWRLA
LOUISIANA WEATHER ROUNDUP
NATIONAL WEATHER SERVICE NEW ORLEANS LA
800 PM CDT TUE AUG 22 2017

NOTE: "FAIR" INDICATES FEW OR NO CLOUDS BELOW 12,000 FEET WITH NO
      SIGNIFICANT WEATHER AND/OR OBSTRUCTIONS TO VISIBILITY.
      SKY/WX - SKY CONDITION AND SIGNIFICANT WEATHER.
      TMP - AIR TEMPERATURE.    DP   - DEWPOINT TEMPERATURE.
      RH  - RELATIVE HUMIDITY.  PRES - PRESSURE.
      HX  - HEAT INDEX.         WCI  - WIND CHILL INDEX.

*  THESE STATIONS ARE NOT NWS OR FAA STATIONS AND ARE NOT UNDER
   NWS QUALITY CONTROL.

LAZ040-048-061>063-065-066-069-230200-
SOUTHEAST LOUISIANA

CITY           SKY/WX    TMP DP  RH WIND       PRES   REMARKS
N.O. INTL ARPT MOCLDY    84  75  74 S6        30.00R
N.O. LAKEFRONT PTCLDY    85  76  74 E7        30.00S
N.O. DOWNTOWN* FAIR      86  75  69 E5        30.01S HX  95
RESERVE*       FAIR      81  76  84 W5        30.01S
SLIDELL        CLOUDY    80  77  90 CALM      30.00R
BATON ROUGE    PTCLDY    74  73  97 N3        30.01F
BOOTHVILLE     CLEAR     84  77  79 SE3       30.00F
BELLE CHASSE   PTCLDY    84  80  88 E3        30.00R HX  97
BOGALUSA*      FAIR      83  75  76 CALM      30.02S
GALLIANO*      CLEAR     80  76  87 CALM      30.00S
NEW ROADS*     FAIR      75  74  96 CALM      30.01F
GONZALES*      FAIR      77  74  91 CALM      30.00S
HAMMOND*       MOCLDY    81  75  83 NW3       30.01R
HOUMA*         NOT AVBL
PORT FOURCHON* CLEAR     86  73  66 SE5       29.99S

$$

LAZ041-044-053-054-230200-
SOUTHWEST LOUISIANA

CITY           SKY/WX    TMP DP  RH WIND       PRES   REMARKS
LAKE CHARLES   CLOUDY    78  76  93 E3        29.98F
LAFAYETTE      CLOUDY    77  76  96 CALM      30.00F
PATTERSON      CLEAR     75  74  96 N3        30.01S
SALT POINT       N/A     78  73  84 CALM      29.99S
NEW IBERIA     CLOUDY    76  71  85 E3        30.01F
CHENAULT AIRPK CLEAR     75  75 100 CALM      29.99F

$$

LAZ027-028-230200-
CENTRAL LOUISIANA

CITY           SKY/WX    TMP DP  RH WIND       PRES   REMARKS
FORT POLK      CLOUDY    78  74  89 CALM      30.00S
ALEXANDRIA INT CLOUDY    79  72  79 VRB5      29.97
ALEXANDRIA     CLOUDY    75  75 100 CALM      29.99F

$$

LAZ001-002-230200-
NORTHWEST LOUISIANA

CITY           SKY/WX    TMP DP  RH WIND       PRES   REMARKS
SHREVEPORT     PTCLDY    85  73  67 S6        29.96S
BARKSDALE AFB  CLEAR     83  72  68 SE7       29.96S
DTN SHREVEPORT CLEAR     90  71  53 S8        29.96S HX  96

$$

LAZ014-016-230200-
NORTHEAST LOUISIANA

CITY           SKY/WX    TMP DP  RH WIND       PRES   REMARKS
MONROE         CLOUDY    80  71  74 SW6       29.98S
TALLULAH       MOCLDY    81  76  84 CALM      29.97S

$$




USA.gov is the U.S. government's official web portal to all federal, state and local government web resources and services.